Location: Bremen
(53.0793°N, 8.8017°E)
Time: 22:43:10
(UTC+01:00)

Explorer 7 - Pass Details

Date: 29 November 2021
Orbit: 483 x 674 km, 50.3° (Epoch: 17 January)

Event Time Altitude Azimuth Distance (km) Brightness Sun altitude
Rises 09:12:47 0° 240° (WSW) 2,708 10.2 5.8°
Reaches altitude 10° 09:15:09 10° 233° (SW) 1,784 9.4 6.0°
Maximum altitude 09:18:57 41° 163° (SSE) 752 8.5 6.4°
Drops below altitude 10° 09:22:36 10° 92° (E) 1,705 10.0 6.8°
Sets 09:24:48 0° 85° (E) 2,572 10.8 7.0°
